Tracking 28790 objects as of 19-Apr-2024
HD Live streaming from Space Station
objects crossing your sky now

SL-16 DEB

Track SL-16 DEB now!
10-day predictions


NORAD ID: 22344
Int'l Code: 1992-093AH
Perigee: 792.7 km
Apogee: 951.1 km
Inclination: 71.1 °
Period: 102.2 minutes
Semi major axis: 7242 km
RCS: 0.1077 m2 (medium)
Launch date: December 25, 1992
Source: Commonwealth of Independent States (former USSR) (CIS)
Launch site: TYURATAM MISSILE AND SPACE COMPLEX (TTMTR)

Note: This is SATELLITE DEBRIS
Your satellite tracking list
Your tracking list is empty




NASA's NSSDC Master Catalog

Two Line Element Set (TLE):
1 22344U 92093AH  24109.03876644  .00004518  00000-0  25193-2 0  9992
2 22344  71.0994   4.0360 0109358 299.3961  59.6275 14.08419627597798
Source of the keplerian elements: AFSPC